Simultaneous Nadir Overpasses (SNOs) Predictions

Prediction of SNOs between GOES-16 and NPP Satellite Orbit:

Table of predicted SNOs for the next 14.0 days since TLE Epoch: 4/1/2023
Index Date Time (GOES-16) GOES-16 Lat,Lon NPP Lat,Lon Distance(km) Time Diff (sec)
1 04/02/2023 06:47:10 -0.05, -75.21 0.93, -79.44 483.33 80
2 04/03/2023 06:25:47 -0.05, -75.22 -0.10, -74.92 33.82 80
3 04/05/2023 18:31:41 0.04, -75.24 -0.07, -75.69 51.94 80
4 04/06/2023 18:10:17 0.05, -75.25 0.96, -71.16 465.71 80
5 04/08/2023 06:34:46 -0.04, -75.27 0.24, -76.42 131.89 80
6 04/09/2023 06:13:22 -0.05, -75.28 -0.80, -71.90 385.76 80
7 04/10/2023 18:37:59 0.04, -75.30 -0.39, -77.20 217.03 80
8 04/11/2023 18:16:36 0.04, -75.31 0.66, -72.68 300.78 80
9 04/13/2023 06:41:04 -0.03, -75.33 0.53, -77.94 296.40 80
10 04/14/2023 06:19:40 -0.03, -75.35 -0.46, -73.40 221.66 80
